[[{"header":{"parameterUnit":"m.s-1","parameterCategory":1,"la1":30.2991,"la2":30.254,"lo1":-89.0895,"lo2":-89.0444,"dy":0.0017,"dx":0.0017,"nx":28,"ny":28,"refTime":"2024-12-10T09:00:00:Z","depth":0,"parameterNumber":2,"parameterNumberName":"U-component_of_WINDS"},"data":[0,0,0,0,0,0,0,0,0,0,0,0,0,0,0,0,0,0,0,0,0,0,0,0,0,0,0,0,0,0,0,0,0,0,0,0,0,0,0,0,0,0,0,0,0,0,0,0,0,0,0,0,0,0,0,0,0,0,3.4458,3.4459,0,3.4501,3.4502,3.4502,3.4418,3.4416,3.4413,3.441,3.4454,3.4458,3.4461,0,0,0,0,0,0,0,0,0,0,0,0,0,3.4304,3.4307,3.4458,3.4459,3.4459,3.4501,3.4502,3.4502,3.4419,3.4415,3.4412,3.4409,3.4453,3.4457,3.4462,0,0,0,0,0,0,0,0,0,0,0,0,0,3.4361,3.4308,3.4458,3.4423,3.442,3.4501,3.4502,3.4503,3.442,3.4415,3.4411,3.4407,3.4451,3.4457,3.4462,3.458,0,0,3.448,3.4482,0,0,0,0,0,0,0,0,3.4358,3.4367,3.4427,3.4425,3.4422,3.445,3.4463,3.4529,3.4421,3.442,3.441,3.4405,3.4456,3.4461,3.4478,3.4582,3.4584,3.448,3.4484,3.4486,3.4487,0,0,0,0,0,0,0,3.4354,3.4365,3.4475,3.4428,3.4425,3.4405,3.4408,3.4475,3.4461,3.442,3.4414,3.442,3.4454,3.4473,3.4479,3.4585,3.448,3.4485,3.4488,3.4491,3.4786,3.4791,0,0,0,0,0,0,3.4355,3.4362,3.4474,3.4477,3.4379,3.4411,3.4415,3.4446,3.446,3.4458,3.4423,3.4416,3.4466,3.4472,3.448,3.4618,3.4486,3.4491,3.4494,3.4782,3.4787,3.4792,0,0,0,0,0,0,3.4352,3.4365,3.4472,3.4418,3.443,3.4418,3.4453,3.4449,3.4467,3.4463,3.4459,3.4445,3.4463,3.4472,3.4556,3.4618,3.4494,3.4499,3.4777,3.4783,3.479,3.4895,0,0,0,0,0,0,3.4348,3.4365,3.441,3.4419,3.4433,3.4548,3.4457,3.4452,3.4477,3.4468,3.4483,3.4481,3.446,3.4548,3.4561,3.4624,3.4503,3.4771,3.478,3.4788,3.4886,3.4905,3.4921,0,0,0,0,0,3.4342,3.4438,3.4412,3.4426,3.4489,3.4551,3.4559,3.4533,3.4483,3.4527,3.4524,3.4481,3.4609,3.4557,3.4571,3.4637,3.4767,3.4777,3.4787,3.4878,3.4901,3.492,0,0,0,0,0,0,3.4436,3.4438,3.441,3.4512,3.4532,3.4537,3.4593,3.4558,3.4593,3.4583,3.4549,3.4553,3.4643,3.4648,3.459,3.4751,3.468,3.4693,3.4744,3.4766,3.4783,3.4779,3.4508,0,0,0,0,0,3.4468,3.4519,3.4519,3.4608,3.462,3.4605,3.4631,3.4609,3.4629,3.4637,3.464,3.4661,3.4706,3.4736,3.4777,3.4887,3.4888,3.4939,3.4956,3.497,3.4982,3.5039,3.5061,3.4825,3.4825,3.4825,0,0,3.4535,3.4543,3.4577,3.4627,3.464,3.4693,3.4613,3.4673,3.4712,3.4646,3.4725,3.4728,3.4749,3.4846,3.4889,3.4853,3.5048,3.4983,3.4994,3.4998,3.5052,3.5074,3.5094,3.4832,3.4831,3.483,0,0,3.4685,3.4697,3.4772,3.4787,3.4808,3.4797,3.4816,3.4826,3.4826,3.4904,3.4856,3.4902,3.4981,3.4997,3.5016,3.5172,3.5133,3.5187,3.5277,3.5333,3.5352,3.5368,3.5423,3.5443,3.5199,3.5199,3.5199,0,3.4766,3.4845,3.4815,3.4879,3.4901,3.4845,3.4921,3.4937,3.497,3.4987,3.4947,3.5044,3.5054,3.5154,3.5192,3.5209,3.5228,3.5185,3.5352,3.5368,3.5383,3.5434,3.5455,3.5205,3.5205,3.5204,3.5203,0,3.4943,3.4998,3.5057,3.509,3.512,3.5189,3.517,3.5204,3.518,3.5173,3.5254,3.5264,3.5306,3.5328,3.5305,3.5425,3.5401,3.5357,3.5285,3.5412,3.546,3.548,3.5214,3.5212,3.521,3.5209,0,0,3.5152,3.5169,3.5191,3.5205,3.5224,3.5266,3.5333,3.5374,3.5403,3.5428,3.5483,3.555,3.5509,3.5531,3.5509,3.5559,3.5681,3.5508,3.5508,3.5539,3.5812,3.5845,3.5868,3.5655,3.5659,3.5662,3.581,0,3.53,3.5415,3.539,3.5503,3.5553,3.55,3.5558,3.5576,3.5572,3.5614,3.5609,3.5657,3.56,3.5612,3.5659,3.5656,3.5735,3.5645,3.5705,3.5708,3.5701,3.5893,3.5928,3.6067,3.5829,3.5832,3.5834,0,3.5488,3.552,3.5638,3.5648,3.5668,3.5721,3.5756,3.5797,3.5816,3.581,3.5834,3.5802,3.5868,3.5796,3.5885,3.5825,3.5848,3.585,3.5855,3.5859,3.5778,3.5902,3.6111,3.6132,3.5864,3.5861,3.5859,0,3.5628,3.5701,3.578,3.5794,3.5809,3.5847,3.5854,3.5869,3.5895,3.5926,3.5943,3.5981,3.6002,3.6033,3.6012,3.5962,3.6105,3.6031,3.6101,3.6102,3.6133,3.6131,3.6348,3.615,3.615,3.6149,3.6149,0,3.5795,3.5869,3.5843,3.5892,3.5973,3.5944,3.6025,3.6026,3.604,3.6088,3.6045,3.6091,3.6062,3.6105,3.609,3.6166,3.6176,3.6172,3.6167,3.6176,3.6176,3.619,3.6179,3.6155,3.6153,3.6152,3.6151,0,3.5965,3.595,3.6033,3.604,3.6044,3.6103,3.6109,3.6154,3.6147,3.6208,3.6221,3.6209,3.6258,3.6241,3.6294,3.6283,3.638,3.6363,3.6374,3.6369,3.6439,3.6432,3.6672,3.6701,3.6485,3.6487,3.6489,0,3.6072,3.6127,3.614,3.6169,3.618,3.6227,3.6254,3.6228,3.6257,3.6282,3.6325,3.637,3.6404,3.6485,3.6481,3.6521,3.6504,3.6585,3.6509,3.6516,3.6503,3.65,3.6505,3.66,3.6602,3.6604,3.6606,0,3.6263,3.6253,3.6293,3.633,3.6363,3.6391,3.6415,3.6442,3.6417,3.6452,3.6501,3.6528,3.6581,3.6626,3.6662,3.6669,3.6634,3.663,3.6648,3.6656,3.666,3.6658,3.6414,3.6624,3.6622,3.6621,3.662,3.6619,3.6404,3.6451,3.6467,3.6512,3.6528,3.6551,3.6594,3.6592,3.6633,3.6674,3.6656,3.6713,3.673,3.6774,3.6787,3.6831,3.6799,3.6826,3.6832,3.6839,3.6847,3.6654,3.6837,3.6837,3.6836,3.6836,3.6836,0,3.6592,3.66,3.6642,3.6677,3.6713,3.6676,3.6701,3.6733,3.6784,3.6803,3.6838,3.6895,3.6938,3.6938,3.6978,3.7013,3.6998,3.7025,3.7021,3.7023,3.6874,3.6854,3.7036,3.7036,3.7036,3.7036,3.7036,3.7036,3.6694,3.6771,3.6763,3.6847,3.6854,3.6909,3.6926,3.6947,3.6962,3.7027,3.7063,3.7063,3.7074,3.7115,3.7153,3.7152,3.7168,3.7201,3.7194,3.7054,3.7034,3.7015,3.6996,3.7205,3.7205,3.7339,3.734,3.7341]},{"header":{"parameterUnit":"m.s-1","parameterCategory":1,"la1":30.2991,"la2":30.254,"lo1":-89.0895,"lo2":-89.0444,"dy":0.0017,"dx":0.0017,"nx":28,"ny":28,"refTime":"2024-12-10T09:00:00:Z","depth":0,"parameterNumber":3,"parameterNumberName":"V-component_of_WINDS"},"data":[0,0,0,0,0,0,0,0,0,0,0,0,0,0,0,0,0,0,0,0,0,0,0,0,0,0,0,0,0,0,0,0,0,0,0,0,0,0,0,0,0,0,0,0,0,0,0,0,0,0,0,0,0,0,0,0,0,0,-2.7863,-2.7864,0,-2.8022,-2.8023,-2.8025,-2.8004,-2.8001,-2.7998,-2.7996,-2.8161,-2.8167,-2.8174,0,0,0,0,0,0,0,0,0,0,0,0,0,-2.7543,-2.7549,-2.7863,-2.7865,-2.7867,-2.8021,-2.8024,-2.8026,-2.8004,-2.8001,-2.7998,-2.7995,-2.8158,-2.8166,-2.8175,0,0,0,0,0,0,0,0,0,0,0,0,0,-2.769,-2.7551,-2.7862,-2.7874,-2.7877,-2.8021,-2.8024,-2.8026,-2.8005,-2.8001,-2.7997,-2.7993,-2.8156,-2.8166,-2.8176,-2.8318,0,0,-2.8207,-2.8212,0,0,0,0,0,0,0,0,-2.7681,-2.7701,-2.7871,-2.7874,-2.7877,-2.7989,-2.7971,-2.8124,-2.8006,-2.7956,-2.7996,-2.7991,-2.8107,-2.8121,-2.8159,-2.8326,-2.8333,-2.8208,-2.8214,-2.8219,-2.8222,0,0,0,0,0,0,0,-2.7671,-2.7694,-2.7926,-2.7873,-2.7877,-2.7873,-2.7889,-2.8,-2.8052,-2.796,-2.7959,-2.7978,-2.8108,-2.815,-2.8163,-2.8335,-2.8208,-2.8217,-2.8223,-2.8227,-2.8628,-2.8632,0,0,0,0,0,0,-2.7657,-2.7686,-2.7921,-2.793,-2.7767,-2.7882,-2.79,-2.7957,-2.8051,-2.8061,-2.7981,-2.7977,-2.8134,-2.8151,-2.8169,-2.8342,-2.8219,-2.8228,-2.8234,-2.8623,-2.8629,-2.8634,0,0,0,0,0,0,-2.7651,-2.7679,-2.7914,-2.7808,-2.7838,-2.7891,-2.7955,-2.7962,-2.8004,-2.8066,-2.8076,-2.8015,-2.8132,-2.8154,-2.8281,-2.8348,-2.8233,-2.8242,-2.8618,-2.8625,-2.8631,-2.869,0,0,0,0,0,0,-2.7642,-2.7676,-2.773,-2.7809,-2.7843,-2.8024,-2.7959,-2.7968,-2.8021,-2.8017,-2.81,-2.811,-2.813,-2.8266,-2.8291,-2.836,-2.825,-2.8612,-2.8621,-2.8629,-2.8683,-2.8698,-2.8712,0,0,0,0,0,-2.763,-2.7741,-2.7733,-2.7762,-2.7912,-2.8027,-2.8047,-2.8067,-2.8027,-2.8082,-2.8122,-2.8107,-2.8336,-2.8279,-2.8308,-2.838,-2.8608,-2.8619,-2.8628,-2.8676,-2.8695,-2.8711,0,0,0,0,0,0,-2.7669,-2.7752,-2.7744,-2.7883,-2.7948,-2.8023,-2.8094,-2.8087,-2.8165,-2.8158,-2.818,-2.8199,-2.8328,-2.8367,-2.8302,-2.8523,-2.8467,-2.8483,-2.8493,-2.8512,-2.8526,-2.8514,-2.8259,0,0,0,0,0,-2.7694,-2.778,-2.7847,-2.7964,-2.7997,-2.804,-2.8091,-2.8101,-2.817,-2.8197,-2.8247,-2.8315,-2.8402,-2.8459,-2.8543,-2.8688,-2.8706,-2.8752,-2.8766,-2.8778,-2.8792,-2.8873,-2.8894,-2.8667,-2.8667,-2.8666,0,0,-2.7746,-2.7802,-2.7855,-2.7973,-2.8025,-2.8114,-2.8063,-2.816,-2.8227,-2.8212,-2.8335,-2.8374,-2.8451,-2.8588,-2.8651,-2.8624,-2.8859,-2.8791,-2.8799,-2.8807,-2.8885,-2.8907,-2.8926,-2.8674,-2.8672,-2.8671,0,0,-2.7887,-2.7937,-2.804,-2.8093,-2.8171,-2.8199,-2.8224,-2.8301,-2.8326,-2.8449,-2.844,-2.852,-2.867,-2.8726,-2.8773,-2.8936,-2.8925,-2.8962,-2.9038,-2.9117,-2.9135,-2.9151,-2.9209,-2.923,-2.8976,-2.8976,-2.8976,0,-2.7942,-2.8075,-2.8094,-2.8192,-2.8245,-2.8235,-2.834,-2.8391,-2.8493,-2.853,-2.8499,-2.8687,-2.8738,-2.8888,-2.8928,-2.8967,-2.8996,-2.8953,-2.913,-2.9147,-2.9162,-2.9218,-2.924,-2.898,-2.898,-2.8979,-2.8979,0,-2.814,-2.8233,-2.8307,-2.8405,-2.8466,-2.8567,-2.8602,-2.8662,-2.8667,-2.8698,-2.8825,-2.8886,-2.8982,-2.9018,-2.9024,-2.917,-2.9151,-2.9125,-2.9069,-2.9187,-2.9241,-2.9262,-2.8986,-2.8985,-2.8983,-2.8982,0,0,-2.831,-2.8417,-2.8444,-2.8489,-2.8575,-2.8648,-2.8749,-2.8843,-2.8894,-2.8965,-2.9051,-2.9178,-2.9154,-2.9208,-2.922,-2.9289,-2.9415,-2.9255,-2.9257,-2.9283,-2.9581,-2.9601,-2.9625,-2.9408,-2.9412,-2.9416,-2.9575,0,-2.846,-2.8637,-2.8657,-2.8816,-2.8903,-2.8895,-2.8983,-2.9046,-2.9078,-2.9157,-2.9192,-2.9283,-2.9244,-2.9277,-2.9345,-2.9385,-2.9475,-2.9374,-2.9489,-2.9493,-2.9471,-2.9653,-2.9675,-2.9822,-2.9596,-2.9599,-2.9602,0,-2.8659,-2.8735,-2.8902,-2.8977,-2.9014,-2.9093,-2.918,-2.9255,-2.9327,-2.9346,-2.9406,-2.941,-2.9515,-2.9454,-2.96,-2.953,-2.9579,-2.9606,-2.9612,-2.9624,-2.9555,-2.9671,-2.9869,-2.9892,-2.9635,-2.9632,-2.963,0,-2.8767,-2.8911,-2.903,-2.9069,-2.9159,-2.9215,-2.9255,-2.9322,-2.9377,-2.9454,-2.9491,-2.9579,-2.9628,-2.9696,-2.9724,-2.9676,-2.9869,-2.9809,-2.9888,-2.9887,-2.9929,-2.9927,-3.0139,-2.9959,-2.9959,-2.9958,-2.9958,0,-2.8933,-2.9036,-2.908,-2.9154,-2.9269,-2.9291,-2.9405,-2.9443,-2.9503,-2.9585,-2.9583,-2.9659,-2.969,-2.9772,-2.9794,-2.9912,-2.9934,-2.9953,-2.9958,-2.9954,-2.9951,-2.9986,-2.9977,-2.9964,-2.9963,-2.9962,-2.9961,0,-2.9074,-2.9108,-2.9237,-2.9311,-2.9333,-2.9415,-2.9479,-2.955,-2.9581,-2.9684,-2.9709,-2.9759,-2.9855,-2.9888,-3.0005,-3.002,-3.0158,-3.0153,-3.0134,-3.0135,-3.0212,-3.0205,-3.0455,-3.0489,-3.0285,-3.0287,-3.0289,0,-2.9178,-2.9257,-2.934,-2.9394,-2.9436,-2.9523,-2.9579,-2.9604,-2.9663,-2.975,-2.9812,-2.9907,-2.9985,-3.0139,-3.0185,-3.0275,-3.0274,-3.0355,-3.0287,-3.0281,-3.0276,-3.0272,-3.028,-3.0368,-3.037,-3.0372,-3.0373,0,-2.936,-2.9373,-2.9453,-2.954,-2.9607,-2.9677,-2.9745,-2.979,-2.9825,-2.9891,-2.9989,-3.0049,-3.0168,-3.0264,-3.0355,-3.0398,-3.0392,-3.0394,-3.0417,-3.0414,-3.04,-3.041,-3.0169,-3.0388,-3.0387,-3.0386,-3.0385,-3.0384,-2.9487,-2.9557,-2.9626,-2.9716,-2.9769,-2.9833,-2.9904,-2.9944,-3.0025,-3.0124,-3.0134,-3.024,-3.031,-3.0432,-3.0479,-3.0563,-3.054,-3.0574,-3.0582,-3.0591,-3.0597,-3.0386,-3.0579,-3.0579,-3.0579,-3.0578,-3.0578,0,-2.9669,-2.9713,-2.9796,-2.989,-2.9962,-2.9949,-3.0023,-3.0084,-3.0177,-3.0243,-3.0319,-3.0432,-3.0525,-3.0578,-3.0671,-3.0728,-3.0728,-3.0752,-3.0748,-3.0759,-3.0611,-3.0582,-3.075,-3.075,-3.075,-3.075,-3.075,-3.075,-2.9772,-2.9891,-2.9912,-3.0057,-3.01,-3.0204,-3.0247,-3.0306,-3.0359,-3.0485,-3.0561,-3.0595,-3.0657,-3.0754,-3.0839,-3.0852,-3.0887,-3.0913,-3.0925,-3.0786,-3.0769,-3.0752,-3.0725,-3.092,-3.0921,-3.1066,-3.1067,-3.1068]}]]